This is the latest recevied weather packets stored in our database for station/object TG5ALY-15. If no packets are shown the sender has not sent any weather packets the latest 10 day(s).
| Time | Temp. | Humidity | Pressure | Rain* | Wind** | Luminosity | Snow |
|---|---|---|---|---|---|---|---|
| 1777974041 | 10° C | 93% | 1029.5 hPa | 0 mm | - | 0 W/m² | - |
| 1777972837 | 10.56° C | 92% | 1029.5 hPa | 0 mm | - | 0 W/m² | - |
| 1777971632 | 10.56° C | 92% | 1029.5 hPa | 0 mm | - | 0 W/m² | - |
| 1777970429 | 10.56° C | 92% | 1029.5 hPa | 0 mm | - | 0 W/m² | - |
| 1777969227 | 10.56° C | 92% | 1029.5 hPa | 0 mm | - | 0 W/m² | - |
| 1777968025 | 11.11° C | 92% | 1029.5 hPa | 0 mm | - | 0 W/m² | - |
| 1777966824 | 11.11° C | 90% | 1030.4 hPa | 0 mm | - | 0 W/m² | - |
| 1777965623 | 11.67° C | 91% | 1030.4 hPa | 0 mm | - | 0 W/m² | - |
| 1777964422 | 11.67° C | 90% | 1030.8 hPa | 0 mm | - | 0 W/m² | - |
| 1777963221 | 12.22° C | 90% | 1030.4 hPa | 0 mm | - | 0 W/m² | - |
| 1777962020 | 12.22° C | 91% | 1030.8 hPa | 0 mm | - | 0 W/m² | - |
| 1777960814 | 12.78° C | 88% | 1031.3 hPa | 0 mm | - | 0 W/m² | - |
| 1777959614 | 12.78° C | 88% | 1031.3 hPa | 0 mm | - | 0 W/m² | - |
| 1777958413 | 13.33° C | 86% | 1031.7 hPa | 0 mm | - | 0 W/m² | - |
| 1777957209 | 13.33° C | 90% | 1031.7 hPa | 0 mm | - | 0 W/m² | - |
| 1777956008 | 13.33° C | 90% | 1031.7 hPa | 0 mm | - | 0 W/m² | - |
| 1777954806 | 13.33° C | 86% | 1031.7 hPa | 0 mm | - | 0 W/m² | - |
| 1777953606 | 13.89° C | 85% | 1031.7 hPa | 0 mm | - | 0 W/m² | - |
| 1777952404 | 13.89° C | 86% | 1031.7 hPa | 0 mm | - | 0 W/m² | - |
| 1777951204 | 13.89° C | 86% | 1030.8 hPa | 0 mm | - | 0 W/m² | - |
| 1777950001 | 14.44° C | 88% | 1030.4 hPa | 0 mm | - | 0 W/m² | - |
| 1777948797 | 15° C | 85% | 1030.4 hPa | 0 mm | - | 0 W/m² | - |
| 1777947592 | 15.56° C | 83% | 1030.4 hPa | 0 mm | - | 0 W/m² | - |
| 1777946388 | 15.56° C | 81% | 1029.9 hPa | 0 mm | - | 0 W/m² | - |
| 1777945188 | 15.56° C | 81% | 1029.5 hPa | 0 mm | - | 0 W/m² | - |
* Rain latest hour (hover to see other rain measurements)
** Current wind speed in m/s (hover to see current wind gust speed)